Theta_e
303 304 305 305 306 306 306 306 307 308 308 309 309 308 314 321 316 305 305 305 306 316 321 312 309 312 304 300 301 302 303 303 303 302 302 303 303 304 305 304 305 306 306 306 307 307 308 309 306 305 307 305 301 296 293 297 302 303 305 303 301 303 307 307 310 311 306 300 297 298 298 300 304 306 305 307 311 313 312 312 311 309 308 308 309 312 313
303 304 304 305 306 306 306 307 307 307 308 308 309 315 322 316 307 308 308 302 309 323 323 319 315 307 302 303 304 301 301 304 305 304 305 305 304 307 308 304 303 304 304 305 306 304 305 307 304 304 309 306 295 290 290 294 301 303 303 302 300 304 310 307 309 311 309 310 310 306 302 303 307 309 306 305 307 308 307 305 305 307 310 311 312 315 311
303 304 303 304 305 305 306 306 306 308 308 308 309 313 319 315 308 314 313 302 306 316 316 321 323 312 307 307 306 304 303 303 303 303 304 303 302 306 306 302 303 304 304 306 305 303 304 304 303 303 306 304 296 291 290 293 301 299 294 296 298 302 307 305 306 309 308 311 316 313 309 307 306 308 306 303 304 307 307 306 307 309 308 306 311 314 309
303 304 303 304 305 305 306 306 307 308 307 308 308 305 311 320 314 322 328 312 305 305 303 314 325 316 313 309 304 305 306 303 300 301 303 302 300 304 303 301 304 306 306 310 311 308 304 302 304 307 308 306 300 291 289 291 296 294 292 294 299 303 305 304 307 311 309 309 309 306 304 304 304 306 307 306 304 303 306 310 311 310 308 306 308 309 307
303 303 303 304 304 305 306 306 306 308 306 308 308 302 310 324 313 311 322 318 315 315 308 311 318 312 311 308 302 306 309 304 301 301 303 303 302 305 303 301 305 306 307 310 312 311 308 304 304 307 309 307 298 290 289 291 292 293 295 296 300 305 306 305 307 308 307 306 305 302 301 301 302 303 305 308 306 303 305 308 308 308 308 307 306 307 307
302 302 303 303 304 304 305 306 306 307 307 308 309 306 309 317 308 300 305 308 314 317 310 309 312 310 310 309 304 310 314 306 304 304 301 302 303 304 305 304 305 306 306 306 307 310 310 309 308 308 307 306 302 297 295 293 291 293 296 296 298 304 307 306 304 305 305 303 301 300 300 301 301 302 302 303 304 305 305 305 305 305 306 305 305 307 307
305 304 302 302 304 303 303 306 305 306 307 306 309 309 305 308 307 300 300 305 308 306 303 307 315 313 313 311 306 310 312 305 304 303 301 305 303 302 306 307 306 308 307 304 307 310 308 306 309 309 307 305 305 305 302 297 291 293 298 297 296 301 308 305 301 303 304 302 302 301 300 302 302 302 302 301 302 304 304 303 303 302 304 304 303 304 303
311 309 306 302 303 302 302 305 304 305 308 305 306 305 304 306 306 305 310 312 308 305 304 310 320 315 311 312 306 307 311 307 305 304 303 305 304 302 306 307 309 312 308 304 306 308 305 303 302 304 305 305 308 308 305 303 297 295 299 299 296 298 306 305 302 304 304 303 305 304 302 303 303 303 302 300 301 302 300 300 300 301 303 302 301 302 302
314 314 312 308 306 302 301 303 303 304 306 305 304 300 300 302 300 307 325 318 305 308 309 311 323 319 310 310 306 306 310 306 304 306 304 304 305 306 306 306 308 309 306 307 311 308 305 305 301 300 303 305 306 303 301 304 305 301 298 299 298 297 303 306 304 305 308 306 305 304 302 301 304 307 305 303 305 307 303 300 299 301 303 302 301 304 305
315 315 315 314 312 308 304 302 301 303 303 303 304 299 298 301 298 303 324 317 303 309 313 313 320 312 304 308 306 306 309 304 303 307 306 304 304 303 304 305 306 309 309 309 310 306 303 302 299 297 298 299 300 300 298 301 307 307 301 299 298 296 301 306 303 306 314 309 302 301 301 302 309 315 314 308 308 309 307 303 301 300 301 304 307 307 306
315 315 314 315 315 313 311 306 301 302 302 301 302 298 297 301 299 306 329 322 303 306 312 311 312 306 303 308 307 306 308 307 306 305 305 307 302 299 303 304 304 310 309 301 294 292 292 293 292 293 296 297 298 299 298 299 301 303 302 302 299 297 300 302 299 305 315 310 303 302 303 307 316 318 312 306 303 305 306 307 307 302 300 304 308 305 303
314 314 314 314 315 314 314 312 307 304 302 300 301 299 298 299 298 313 343 326 302 306 312 305 305 307 307 307 307 308 309 307 306 304 304 307 304 300 302 302 304 307 299 289 286 287 290 293 294 295 297 299 299 299 299 299 298 296 298 302 304 302 302 301 299 304 309 307 306 306 306 313 317 311 306 303 300 301 303 305 308 304 300 302 305 303 303
313 313 313 313 314 314 314 314 313 309 306 303 301 299 299 300 298 312 336 327 306 308 310 304 303 305 308 307 308 308 304 301 302 302 304 306 305 304 301 300 302 299 288 285 289 293 298 303 304 302 300 298 298 299 300 301 299 296 296 299 304 305 303 302 302 303 305 305 306 305 304 307 307 305 306 304 301 302 304 307 309 307 304 304 305 305 304
311 311 312 312 312 313 313 313 314 313 311 309 306 302 300 300 299 303 314 318 308 302 302 307 310 308 309 311 309 306 305 303 303 301 299 301 305 307 301 295 294 289 285 289 296 299 303 307 311 312 309 306 303 301 301 299 297 297 298 298 300 303 304 303 302 303 303 304 307 307 303 304 306 307 308 306 306 307 307 308 309 307 307 308 307 307 306
309 309 309 309 310 311 312 313 313 313 313 311 311 310 305 301 300 298 302 314 317 305 301 305 307 305 309 311 307 308 314 313 307 302 299 298 302 302 295 289 288 285 286 293 301 306 304 303 308 311 311 311 306 302 304 302 297 295 297 297 296 298 301 302 301 304 304 303 307 310 306 306 309 308 306 306 308 309 308 307 307 307 309 309 308 309 308
308 308 307 307 308 308 309 311 311 311 313 312 311 314 310 305 303 296 298 313 321 308 302 304 306 310 313 308 303 303 307 309 308 310 312 309 306 301 291 285 285 287 290 297 304 307 305 305 306 306 306 306 303 302 304 305 302 296 294 295 296 297 300 301 300 303 305 303 306 309 307 307 308 306 304 306 308 308 307 306 307 312 315 310 306 306 305
307 307 306 306 307 307 308 310 311 310 311 311 311 312 310 308 307 299 298 310 313 302 302 303 308 314 311 305 302 302 301 303 304 306 312 309 305 303 297 289 287 290 295 301 307 307 307 308 305 305 310 306 300 303 305 304 305 304 298 297 299 299 301 302 301 304 305 304 307 308 306 305 307 304 303 305 306 306 306 306 307 310 310 306 304 303 301
306 306 306 306 307 308 309 309 310 310 310 310 310 310 309 309 309 303 300 308 310 302 299 296 301 305 302 298 302 302 300 301 302 302 307 306 303 305 303 297 295 296 296 300 308 307 308 309 304 304 310 305 298 302 305 304 305 305 301 301 301 301 300 298 300 305 304 302 305 307 305 306 306 305 307 307 305 304 306 307 306 304 303 302 302 301 300
304 304 306 307 307 308 309 309 310 309 309 310 309 309 308 309 310 307 303 307 310 303 296 293 297 300 298 297 302 302 299 300 302 302 305 307 303 300 299 297 298 298 298 302 306 304 305 309 303 299 305 308 305 303 303 304 305 305 303 303 303 303 302 300 301 303 302 301 304 305 306 306 303 304 308 306 303 304 306 306 303 301 301 301 300 300 300
302 303 304 305 306 307 307 307 309 308 308 309 308 308 308 307 308 308 305 306 308 303 296 294 298 299 298 298 302 302 300 303 304 302 303 305 300 298 301 303 301 302 303 304 304 303 304 308 304 299 304 311 307 302 303 308 309 306 305 305 305 305 307 310 308 303 301 302 304 305 309 308 302 303 307 305 303 304 305 302 301 301 301 300 299 299 299
301 301 302 303 304 305 305 306 307 308 308 308 307 307 307 307 308 308 304 303 306 303 298 296 298 298 298 299 299 299 300 302 303 302 304 304 299 299 303 305 304 307 307 305 305 303 303 305 304 302 304 304 302 303 307 309 309 305 301 302 304 303 306 312 311 305 304 309 309 308 309 308 303 303 305 304 305 305 302 301 301 300 299 299 298 297 297
301 301 301 301 301 303 304 305 306 306 306 307 306 306 307 307 307 307 305 302 301 300 298 297 298 298 299 300 299 298 299 300 299 299 302 303 301 300 303 305 306 306 304 303 304 303 302 304 303 302 304 303 302 305 306 304 306 307 301 299 303 305 307 309 306 304 307 309 307 306 305 304 304 305 304 303 303 302 301 301 300 298 298 297 296 296 297
301 301 300 300 300 301 303 304 304 305 305 306 306 306 307 307 307 307 306 302 299 298 297 296 298 300 301 301 300 299 299 299 298 298 298 301 304 304 303 303 302 301 299 299 301 303 304 305 301 300 304 305 302 304 304 302 306 310 304 300 303 304 302 302 303 306 307 303 302 303 302 301 304 305 304 304 302 300 300 300 299 298 297 296 296 296 296
301 300 300 300 300 300 301 302 302 303 304 305 307 306 306 307 306 306 306 305 305 305 301 299 301 303 302 301 300 300 299 298 298 298 296 297 302 306 305 299 296 299 302 298 296 299 301 301 299 299 302 305 302 302 304 304 306 307 304 303 307 306 300 299 303 306 304 301 302 303 301 301 302 302 302 303 301 300 299 298 297 296 296 296 296 296 296
300 300 299 299 300 300 300 301 301 301 302 305 306 306 306 306 305 305 305 305 306 309 311 310 306 301 300 302 301 300 299 298 297 298 297 296 298 301 301 297 295 299 301 295 293 297 300 300 300 300 301 303 302 301 304 304 303 303 302 304 308 305 300 300 304 304 302 302 302 301 301 302 303 302 302 301 299 298 298 297 297 297 297 297 296 295 296
299 299 298 299 300 300 300 301 301 301 301 304 306 306 305 305 304 304 304 301 300 304 312 317 309 299 299 302 302 299 299 298 297 297 297 297 297 296 297 297 295 296 296 292 293 298 301 300 300 300 303 303 300 301 305 304 301 301 301 302 304 302 299 301 304 303 303 302 302 303 303 303 303 302 301 299 298 298 298 299 299 298 298 297 296 295 295
298 298 298 298 299 300 300 300 300 301 301 302 306 306 304 303 303 304 303 302 302 306 313 317 312 304 301 301 301 299 299 298 298 298 297 296 297 296 296 296 295 296 296 294 294 297 298 299 299 301 304 302 298 299 303 301 299 301 301 300 301 300 301 303 303 303 304 303 303 304 303 303 303 301 299 298 298 299 301 301 300 299 299 298 297 296 294
297 298 298 298 298 299 299 299 300 301 300 301 304 306 304 302 302 302 302 302 303 306 310 311 309 305 303 302 300 300 299 298 298 298 297 296 296 296 296 296 295 296 298 298 298 298 299 301 302 302 301 301 299 300 301 299 298 300 302 303 302 301 303 306 305 304 304 302 302 302 302 301 301 299 298 298 298 299 301 301 300 300 299 297 297 296 295
296 297 297 298 297 297 298 298 298 299 299 300 303 305 305 302 301 301 302 302 302 302 304 306 306 304 304 303 301 300 299 298 298 298 297 296 297 296 296 296 294 295 297 297 299 301 301 302 303 301 298 298 300 301 301 301 301 301 302 305 305 304 306 307 305 303 302 301 302 301 300 299 298 298 299 299 296 297 301 300 299 299 297 295 296 296 295
296 296 296 297 297 296 296 297 296 297 298 299 302 305 307 306 302 300 300 301 302 301 303 307 308 305 302 300 300 300 299 298 298 298 297 296 297 296 296 295 293 292 295 296 297 300 301 301 301 301 298 296 298 301 301 302 304 303 302 304 307 306 305 305 304 303 302 301 300 299 298 299 298 298 300 299 294 295 298 298 297 297 295 293 294 294 293
295 295 295 295 296 296 295 296 296 298 299 300 303 309 312 308 302 299 299 301 301 299 299 304 308 305 302 300 298 298 299 299 299 298 297 296 296 295 295 296 295 294 297 300 298 297 299 301 301 302 300 297 298 302 302 301 303 304 302 304 307 305 302 302 302 301 300 299 298 298 300 301 301 301 303 301 296 295 297 296 295 295 294 292 292 292 292
294 294 294 294 295 295 295 296 298 300 300 299 301 305 305 302 300 299 299 301 301 298 300 307 311 308 307 305 299 296 299 300 297 297 298 298 296 295 294 294 294 294 297 299 299 298 299 300 299 300 301 299 299 301 301 300 303 303 302 303 305 303 302 302 301 300 300 298 297 300 304 304 303 303 303 299 295 293 294 295 294 293 293 292 292 292 293
294 294 293 294 295 295 296 298 299 301 300 300 300 299 298 298 299 299 299 300 299 296 298 306 310 307 306 305 299 297 300 302 299 299 301 299 296 297 297 295 294 295 296 298 301 301 300 298 298 299 300 299 299 302 303 302 302 302 302 302 302 301 302 302 300 301 303 301 297 299 304 304 302 300 297 294 293 293 293 293 293 293 293 293 294 294 294
295 294 294 294 295 295 297 299 300 300 299 299 299 298 297 298 299 299 299 299 299 298 299 302 306 307 306 306 304 300 299 302 303 303 303 300 296 298 301 299 297 298 299 299 301 301 300 300 300 301 300 298 297 300 303 303 302 302 302 302 300 300 302 303 303 305 307 304 300 299 298 297 296 296 296 296 296 295 294 293 293 295 295 295 295 295 294
295 295 294 295 295 296 298 300 299 298 297 298 298 297 297 299 299 299 299 299 301 305 305 302 304 307 307 308 311 305 299 300 303 302 302 301 297 297 300 301 301 302 302 299 299 301 302 302 301 301 301 299 298 301 303 304 304 303 302 302 301 300 302 303 306 308 308 305 303 301 298 296 297 299 299 300 298 296 295 294 294 295 296 295 295 295 294
294 294 295 295 295 297 299 299 299 298 297 297 298 297 298 300 299 299 299 299 300 305 305 302 303 306 306 307 309 303 299 301 303 300 299 300 299 297 298 301 304 304 300 297 300 303 302 299 300 302 302 301 302 304 305 305 305 305 303 302 302 301 301 302 303 304 305 303 303 304 303 301 301 300 298 298 297 296 296 296 295 295 295 295 295 295 295
294 295 295 294 295 298 300 299 297 297 297 297 297 298 299 300 299 300 299 299 299 300 300 303 306 304 301 303 305 301 300 302 303 301 303 304 302 300 300 302 305 304 300 301 305 306 302 298 299 304 305 303 303 305 305 305 305 304 302 302 302 301 302 303 300 300 302 303 302 302 301 300 299 298 297 297 296 296 296 295 295 295 295 295 294 294 294
294 295 294 294 298 303 303 299 296 296 297 297 298 300 299 297 299 302 300 298 299 298 297 302 306 301 297 301 305 302 300 301 301 302 304 303 301 300 300 302 304 303 302 304 305 302 301 300 300 302 305 304 302 304 307 306 303 302 301 303 303 303 304 304 300 299 301 302 300 299 299 298 298 297 296 296 295 295 295 294 293 293 293 293 293 293 292
294 295 294 295 299 302 301 297 295 296 298 298 298 300 299 297 300 304 301 298 300 300 298 302 304 299 297 304 306 301 298 300 302 303 304 302 302 302 302 302 303 301 302 305 302 299 301 304 301 300 304 304 302 305 307 304 302 303 303 299 296 296 298 298 296 296 298 299 298 297 297 296 296 296 296 295 294 294 293 292 292 292 292 292 292 292 292
294 296 295 295 296 297 297 296 297 299 300 299 297 300 302 300 300 301 301 303 307 304 298 299 299 295 293 299 302 301 299 299 300 302 302 301 300 300 300 301 301 299 302 305 303 299 301 304 302 301 302 303 305 307 306 303 305 307 302 293 289 291 293 293 293 294 294 293 294 293 293 292 293 294 294 294 293 293 293 292 292 292 292 292 292 292 292
296 296 295 295 295 296 296 297 298 299 298 298 298 300 301 300 297 295 298 305 309 304 297 296 298 298 296 296 298 301 301 298 295 296 298 299 298 298 300 301 299 298 301 304 302 299 300 303 304 304 303 305 308 307 304 305 308 307 299 291 290 292 293 291 292 294 293 291 292 292 292 292 292 292 292 292 292 292 292 292 292 292 292 291 292 292 292
295 296 296 296 296 296 296 296 297 297 297 299 301 301 299 298 297 296 298 300 301 300 298 297 297 299 299 296 295 297 299 297 294 295 298 300 300 299 300 300 300 300 302 302 299 298 299 302 305 304 303 305 307 304 301 303 306 303 297 292 291 293 292 291 291 293 293 292 291 291 292 292 292 291 291 291 291 291 291 291 291 291 292 292 292 292 293
294 295 296 296 295 295 295 295 296 298 301 303 302 301 301 300 298 299 301 301 298 298 298 297 295 296 297 296 295 296 297 296 296 297 298 300 300 299 299 300 301 301 301 299 298 299 301 302 303 302 301 303 304 302 299 299 299 298 295 292 292 292 292 291 291 292 292 291 291 291 291 292 291 291 292 292 291 291 291 291 291 292 292 292 293 293 293
294 294 294 295 295 296 296 296 296 299 302 302 300 300 301 300 298 300 303 303 300 298 297 296 295 297 298 296 296 298 298 296 296 297 297 298 299 300 301 303 302 299 297 298 300 301 301 301 301 302 302 302 301 299 298 297 296 295 294 292 292 292 292 291 291 292 292 292 292 292 291 292 292 292 292 292 292 291 291 292 292 293 293 293 293 293 293
296 297 296 297 297 296 295 296 298 299 299 300 301 302 301 299 300 302 301 298 296 297 297 295 294 296 297 295 295 297 299 298 296 297 299 299 299 300 302 302 302 299 298 300 303 302 299 299 302 303 301 299 297 296 295 294 293 293 293 293 292 292 291 292 292 292 291 292 292 292 291 292 292 292 292 292 292 292 292 292 292 292 292 292 292 292 293
296 296 296 298 297 294 294 298 300 299 298 299 301 302 301 300 301 300 296 294 296 298 296 295 295 296 296 296 296 297 299 299 297 298 299 299 299 300 299 298 298 299 300 301 302 300 298 299 301 301 298 295 294 294 294 293 292 292 293 293 293 292 292 292 292 291 291 292 291 291 291 292 291 292 292 292 292 292 292 292 292 292 292 292 292 292 293
296 293 293 297 298 296 296 298 297 294 294 296 298 298 296 294 296 295 292 290 293 295 293 293 294 294 293 294 295 295 297 299 298 297 297 297 298 299 299 298 298 298 300 300 300 298 298 300 301 298 295 294 293 293 293 293 293 293 293 293 292 292 291 291 291 291 291 291 291 291 291 291 291 292 292 291 292 292 292 292 292 292 292 292 292 292 292
297 295 295 298 299 298 298 296 292 291 293 294 293 291 289 289 294 296 292 288 289 293 294 295 295 294 293 294 294 294 296 298 297 296 297 298 298 298 298 299 299 298 299 300 299 297 298 299 298 295 293 293 292 293 293 293 293 293 293 292 292 292 291 291 291 291 291 291 291 291 291 291 291 292 291 291 292 292 292 292 292 292 292 292 292 292 292
294 295 295 296 296 297 295 292 291 295 296 294 292 291 290 291 296 298 292 288 290 293 293 292 292 293 294 295 294 294 295 296 296 297 298 299 299 297 297 298 298 298 298 300 300 298 297 297 295 293 293 293 293 293 293 292 292 292 292 292 291 291 291 291 290 290 291 291 291 291 291 291 291 291 291 291 291 292 292 292 292 292 292 292 292 291 292
293 294 294 294 295 296 293 290 292 297 297 296 296 297 295 295 297 295 291 290 292 293 292 292 293 293 294 295 295 295 294 294 296 298 297 297 298 298 297 297 297 296 297 298 298 296 295 294 293 292 293 293 293 293 293 292 291 291 291 291 291 291 290 290 290 290 291 291 291 291 291 291 291 291 291 291 291 291 292 292 292 292 292 292 292 292 292
293 294 294 294 295 295 294 292 294 294 294 294 297 296 294 295 295 293 290 291 293 293 293 294 294 293 294 294 294 294 292 292 294 296 296 296 297 297 296 295 295 294 294 295 295 294 293 293 292 292 293 293 293 292 292 291 290 290 290 290 290 290 290 290 290 290 290 291 291 291 291 291 291 291 291 291 291 291 291 291 292 292 292 292 292 292 292
293 295 294 293 292 292 292 292 293 292 292 292 292 291 291 293 293 290 290 292 293 293 293 294 293 293 293 293 293 293 293 292 292 294 294 294 296 296 294 293 293 293 293 293 292 292 292 292 292 292 292 292 291 291 290 290 290 290 290 290 290 290 290 290 290 290 290 290 290 290 291 291 291 291 291 291 291 291 291 291 292 292 292 292 292 292 292
Wind_Speed
33 34 35 35 35 35 34 31 24 18 11 3 3 4 3 4 3 6 17 5 7 8 7 1 5 4 0 1 1 1 2 2 1 1 2 2 1 2 1 1 0 1 1 1 2 1 2 2 1 1 3 2 1 2 4 4 1 2 1 1 1 1 2 1 5 5 4 4 3 2 2 2 1 2 2 4 3 4 5 5 4 2 3 2 2 3 10
33 33 34 35 35 34 34 33 26 20 13 6 3 4 3 2 3 5 17 8 5 4 5 2 3 2 0 2 2 2 1 2 2 1 1 2 1 1 1 0 1 1 1 2 1 1 0 1 1 0 2 2 1 2 4 4 2 2 1 1 1 1 0 1 4 6 7 6 6 5 3 0 3 3 1 2 4 6 4 3 3 2 5 7 4 5 10
33 34 34 34 35 34 33 33 28 20 15 9 4 5 4 3 1 3 15 19 11 5 4 6 4 1 1 4 3 3 2 2 2 1 0 1 1 1 1 1 1 1 2 2 1 1 1 1 2 2 1 3 2 3 3 3 1 0 1 0 0 2 2 2 1 2 4 5 6 5 3 2 2 1 2 2 4 7 3 2 3 3 4 6 6 7 10
34 34 35 34 35 34 32 33 31 22 14 11 10 7 4 4 3 3 9 14 11 4 1 4 5 3 3 3 2 3 2 1 1 2 1 1 2 1 1 1 2 2 2 2 2 2 1 1 1 1 3 4 1 1 1 1 1 1 1 0 2 2 1 4 6 6 7 8 9 4 1 1 5 4 4 4 5 5 5 4 3 5 3 3 9 12 12
36 35 35 35 35 35 32 32 32 25 14 10 13 11 5 3 3 2 3 5 6 5 5 6 4 2 3 3 1 2 2 3 2 1 0 1 1 1 1 1 1 0 1 2 1 2 1 1 1 2 4 4 3 1 1 1 1 2 2 1 3 4 3 5 8 10 11 12 11 4 2 5 9 8 6 6 6 6 7 6 7 5 4 6 12 8 8
38 37 36 36 35 35 34 31 31 29 19 10 10 7 6 4 2 1 1 1 2 3 4 4 5 5 4 3 1 2 3 4 2 1 1 1 1 1 1 2 0 3 2 1 1 3 3 2 2 2 2 3 3 2 1 1 2 3 2 2 3 4 4 4 4 8 10 11 13 7 3 7 7 8 12 8 7 9 12 14 10 8 6 13 11 4 8
40 39 38 38 36 36 35 32 30 29 23 20 19 9 3 4 3 1 2 3 3 1 3 2 5 6 4 3 3 2 3 4 2 1 2 3 2 2 2 4 4 2 2 0 1 2 2 4 4 1 1 3 2 3 2 1 2 2 2 3 1 3 4 2 0 7 9 10 13 7 4 6 6 11 14 8 9 13 15 14 10 8 12 19 17 14 17
40 40 40 40 38 37 36 34 32 28 26 31 27 11 2 3 2 1 4 4 2 0 2 3 4 4 4 3 2 1 1 3 3 1 1 2 3 2 1 4 3 1 1 1 2 4 2 4 6 2 0 3 1 2 3 2 2 2 2 2 2 1 3 1 3 5 8 6 7 4 3 5 7 14 14 7 9 11 11 10 7 6 12 17 14 13 16
38 40 41 41 41 40 38 36 34 30 29 28 19 7 5 4 2 3 5 3 4 2 2 3 4 3 4 2 1 0 1 2 2 2 1 2 2 2 2 2 2 1 2 1 6 7 5 6 8 5 3 4 3 3 2 4 3 1 1 0 1 1 3 2 5 5 7 4 6 8 6 5 6 15 15 7 7 7 7 7 6 8 9 8 5 6 11
36 37 39 40 41 41 40 39 36 34 32 26 13 5 7 4 1 2 5 3 4 3 3 3 4 2 2 0 1 1 2 3 2 1 1 1 2 4 6 3 1 2 3 5 7 6 6 6 7 4 4 3 2 1 0 4 5 4 3 1 0 3 1 2 4 3 6 6 7 9 8 6 6 10 8 5 6 5 4 5 8 10 7 3 4 7 8
33 35 36 38 39 40 40 40 38 37 37 30 18 9 9 6 2 3 5 5 3 2 2 4 4 2 1 1 1 1 1 2 1 1 2 1 0 2 4 4 0 3 4 4 2 2 4 4 4 2 2 1 2 2 3 4 4 3 5 3 0 3 3 0 0 1 6 9 9 8 7 5 6 7 6 4 8 8 8 8 10 11 8 5 8 9 10
31 32 33 35 36 37 38 38 38 38 37 32 25 20 16 10 3 2 5 6 2 3 4 2 1 0 0 0 1 3 2 2 1 1 2 3 1 1 2 4 0 3 3 3 3 2 4 5 4 3 1 3 4 5 4 4 3 1 2 5 3 3 3 1 1 2 5 7 7 8 5 5 10 8 3 5 7 7 9 11 12 10 10 10 13 14 15
29 30 31 32 33 34 35 36 36 36 34 31 29 29 24 16 7 3 5 6 1 2 3 1 1 1 0 1 2 4 4 3 2 1 2 3 2 2 1 2 3 2 2 3 3 2 3 5 3 3 2 3 4 5 5 4 3 3 2 3 5 5 4 2 1 2 3 4 4 3 7 11 14 11 2 2 1 2 1 7 12 11 8 10 12 16 16
27 28 28 29 30 30 31 32 33 33 32 30 30 31 29 22 12 4 4 5 1 2 1 2 4 2 0 2 2 2 3 3 3 1 2 1 2 3 2 1 1 1 3 3 2 3 2 3 5 4 4 5 4 3 2 3 3 3 3 2 2 6 5 2 1 2 2 0 2 5 8 12 12 5 1 1 1 3 2 2 10 12 6 9 10 13 13
25 25 26 27 27 28 28 29 30 30 29 28 28 29 30 26 16 5 3 6 4 1 1 1 2 1 1 1 1 3 4 4 4 2 1 1 1 3 3 2 2 3 3 1 2 3 2 2 3 4 5 4 3 3 1 1 2 2 2 2 2 3 3 4 2 1 2 2 3 4 5 7 8 5 3 2 2 5 5 1 7 12 7 6 8 9 11
23 24 25 25 26 26 26 26 27 27 27 26 25 27 29 27 19 10 3 5 6 2 2 3 5 4 4 1 1 2 2 3 3 4 5 4 3 3 3 1 1 2 2 3 3 3 3 1 1 0 3 2 1 3 3 1 2 2 3 4 5 4 2 3 3 2 1 3 1 2 3 7 9 8 5 4 4 4 4 3 6 8 6 2 4 7 10
23 24 24 25 25 25 25 25 25 26 25 23 23 26 28 26 20 13 6 4 6 2 3 3 4 5 4 2 2 1 1 1 2 2 3 4 3 4 3 2 1 2 1 4 3 3 4 2 1 1 4 3 2 2 4 1 2 4 2 4 5 4 3 2 2 3 2 3 2 3 5 8 11 9 5 3 4 4 5 7 8 6 6 4 4 9 12
22 23 24 25 25 25 25 25 24 25 25 22 21 24 27 26 22 15 7 4 5 2 2 0 4 4 2 1 1 1 2 1 2 1 2 3 2 2 2 1 0 2 1 2 3 3 2 1 1 1 4 3 1 1 3 1 3 4 1 2 1 1 0 1 2 3 3 4 3 4 5 8 10 8 4 1 2 2 4 7 7 6 10 10 8 11 12
22 23 24 24 25 25 25 25 25 25 25 23 20 22 26 26 23 17 9 4 5 3 3 2 4 3 1 2 1 0 1 2 2 1 3 3 1 2 1 0 0 0 1 2 2 1 1 3 2 2 2 5 1 0 2 2 3 2 2 1 3 1 0 0 2 2 2 3 3 4 7 7 5 4 1 0 2 5 5 6 7 9 12 13 12 12 10
24 24 24 24 24 24 24 25 25 25 25 25 21 21 25 25 22 18 11 3 4 4 3 2 4 3 3 3 3 2 1 3 2 2 1 2 3 0 3 3 2 1 2 2 1 0 1 3 3 1 2 4 1 0 2 4 4 4 4 4 4 4 2 2 3 4 1 1 1 3 6 6 3 3 1 0 2 6 6 6 10 12 11 10 12 12 9
24 25 25 24 24 24 24 24 25 24 25 25 21 20 24 25 22 18 11 5 5 4 2 2 5 6 6 6 4 3 2 1 2 3 2 3 3 1 1 2 2 0 0 1 0 2 2 2 2 1 2 2 1 1 2 4 6 5 4 3 3 4 4 3 4 3 3 2 3 4 4 5 3 1 2 5 6 6 5 6 9 12 10 8 9 12 11
23 24 24 24 23 23 23 24 24 24 25 24 21 21 24 24 22 17 12 9 8 6 4 5 9 10 10 9 7 3 1 2 4 4 3 2 2 1 3 3 2 2 2 2 1 2 2 1 1 2 2 2 2 3 2 2 6 7 1 1 3 4 5 4 5 4 4 5 8 7 6 5 3 4 5 9 10 7 5 5 7 8 9 8 8 12 15
21 22 23 23 23 23 23 24 24 25 25 24 23 24 25 24 22 17 10 8 10 8 5 7 8 8 8 10 8 6 4 2 3 4 4 2 2 2 2 2 2 2 0 1 1 1 1 2 1 2 3 2 2 3 3 2 4 5 3 2 3 3 3 2 3 4 4 7 11 9 9 11 7 3 6 9 9 7 5 5 6 7 8 8 7 10 14
18 20 21 22 22 23 23 24 25 25 26 24 22 23 25 26 25 20 11 6 6 5 3 3 3 3 4 8 7 6 6 6 3 4 5 5 2 2 1 1 0 1 2 0 2 3 1 1 1 0 2 3 2 2 5 5 4 3 3 4 4 3 2 1 3 5 6 8 11 10 10 14 14 10 7 7 6 5 5 5 6 7 8 8 7 9 11
16 17 18 19 20 21 22 22 24 25 26 23 19 20 25 28 27 23 15 6 3 4 3 2 2 1 2 6 6 5 7 8 5 2 4 7 7 4 3 1 1 1 2 1 2 3 0 2 1 1 3 3 2 2 3 4 3 2 2 4 3 2 2 2 3 5 6 9 13 14 15 18 16 8 4 5 6 6 6 6 7 8 8 8 8 8 8
14 15 16 17 18 19 20 21 22 24 25 21 17 20 26 28 27 24 18 8 2 4 3 2 3 1 3 6 6 6 8 9 7 3 1 5 8 8 7 5 3 3 1 1 2 3 2 2 2 2 4 3 3 3 3 4 4 2 4 5 2 1 4 2 1 3 6 9 12 12 14 19 14 1 3 8 10 7 8 9 8 9 10 10 11 11 9
12 13 14 15 16 18 18 19 20 21 22 20 15 16 22 25 25 24 21 14 5 2 3 1 3 5 7 5 5 8 9 9 10 7 3 1 4 6 7 5 2 1 1 1 0 2 3 1 1 4 4 3 2 3 3 4 4 3 5 5 2 2 5 2 2 3 7 8 11 10 11 16 14 4 6 9 8 6 9 11 10 11 12 11 13 15 14
10 11 12 12 14 15 16 17 18 19 19 18 12 10 15 22 24 22 20 17 8 1 2 2 5 8 7 4 7 11 10 10 12 9 4 2 2 4 6 6 4 2 2 2 1 2 3 2 2 3 2 2 2 3 2 2 2 4 5 5 4 4 5 4 4 4 8 11 14 12 9 11 13 11 11 10 6 5 8 10 10 11 12 10 10 13 15
8 10 10 11 12 13 13 15 16 16 17 16 10 4 7 13 20 21 19 16 10 2 2 0 4 5 4 5 9 11 10 13 14 10 5 4 3 4 6 6 6 3 3 3 2 2 3 3 2 2 2 2 2 3 3 2 4 7 7 6 5 6 6 6 5 6 10 14 13 9 7 9 11 11 11 10 6 4 7 10 10 10 12 12 10 10 12
9 9 10 10 12 12 13 14 15 14 15 14 8 4 3 5 12 20 21 16 10 4 2 2 1 2 4 5 7 9 13 17 16 10 5 4 3 4 4 5 5 3 1 1 1 3 2 1 1 3 3 3 3 1 1 1 4 7 7 7 7 6 6 5 5 6 10 14 11 6 6 10 10 8 8 9 9 7 6 8 11 12 14 14 12 10 14
9 10 10 10 12 12 13 14 14 12 13 11 6 4 2 1 9 20 21 14 8 3 3 3 1 3 4 4 3 8 16 18 14 9 6 3 1 2 3 4 4 4 2 1 1 2 1 1 1 2 3 2 3 2 2 2 4 8 9 7 7 8 8 6 6 7 10 11 9 6 7 8 6 5 5 7 11 12 8 9 15 18 17 17 16 15 18
10 10 10 10 11 12 13 14 13 10 10 11 10 7 3 4 12 19 16 9 5 2 3 3 2 2 3 4 3 7 14 14 9 8 6 2 1 2 2 3 3 4 5 2 1 1 2 2 2 2 2 3 3 2 2 3 5 12 13 9 8 8 8 7 8 9 8 7 4 4 7 7 6 6 7 8 12 15 12 12 19 22 19 18 19 20 21
11 11 11 10 10 11 11 11 10 9 9 10 10 9 11 13 14 14 10 5 4 3 3 3 2 0 2 4 3 6 10 8 5 6 5 1 1 2 2 2 1 2 4 3 2 2 1 2 2 2 3 2 2 1 2 5 11 15 15 12 9 7 7 8 9 8 7 6 4 3 5 7 8 10 12 12 14 17 16 16 19 21 17 14 14 15 17
11 11 11 9 9 10 9 7 8 9 8 7 6 12 19 18 12 8 6 4 3 3 3 3 2 1 3 4 2 4 6 4 2 3 3 2 1 2 2 2 3 1 2 3 1 1 2 0 2 2 3 1 1 1 4 9 13 13 12 12 9 6 5 8 7 6 6 6 4 6 9 10 9 11 12 12 13 16 17 16 14 14 14 12 12 12 13
12 11 10 9 8 7 5 4 7 9 8 6 9 16 19 14 8 7 7 5 3 2 2 2 3 1 3 4 3 3 4 3 2 2 2 2 2 2 1 1 3 2 2 1 0 1 2 1 2 2 2 1 1 4 7 10 11 10 10 11 9 4 4 6 6 6 7 6 5 6 8 7 7 9 10 10 10 12 13 12 11 10 11 13 14 13 11
12 11 9 8 6 4 2 2 7 10 8 8 14 18 14 9 6 7 8 8 6 2 1 1 2 2 1 2 4 4 4 4 2 2 1 2 3 2 3 2 2 2 1 1 1 2 2 1 2 2 1 1 4 7 7 7 9 11 12 12 9 4 5 8 8 8 9 8 7 8 7 6 7 8 9 10 11 10 10 11 12 12 12 14 16 14 12
14 12 10 7 5 3 2 3 6 10 11 14 16 14 8 5 4 3 5 7 8 5 3 2 1 2 1 1 3 3 4 3 3 3 3 2 2 1 2 2 2 3 2 2 2 3 1 1 2 2 4 6 7 7 6 7 10 11 11 10 8 6 6 7 6 5 8 10 9 9 9 9 9 9 9 12 14 14 13 13 12 12 13 14 15 14 15
15 12 9 7 4 2 1 4 9 14 16 14 11 7 4 3 3 2 2 3 5 4 4 3 1 1 0 0 2 3 3 2 2 3 2 2 2 2 1 1 1 2 2 3 4 3 1 1 1 2 6 8 6 5 7 9 10 9 8 7 7 6 5 5 3 3 5 8 9 10 10 11 13 13 13 14 15 15 14 13 12 13 13 13 14 17 18
14 10 8 7 4 1 3 9 14 14 11 7 4 2 2 2 3 2 2 2 2 2 2 2 1 1 1 1 4 3 1 1 3 3 2 1 2 2 1 1 2 0 1 4 4 0 0 3 2 1 5 8 5 5 9 8 6 6 6 6 7 7 5 4 4 5 6 8 9 10 10 12 14 14 14 14 14 14 14 14 14 16 17 17 19 20 18
16 13 8 5 4 6 9 11 11 8 4 3 3 2 1 2 2 0 1 2 2 2 1 1 1 2 1 1 3 3 1 1 2 2 2 2 2 1 0 2 1 0 1 5 3 1 0 3 1 1 6 8 6 6 6 5 4 5 5 5 6 8 8 7 9 10 11 12 14 15 15 16 15 14 14 14 14 15 15 15 17 20 21 21 23 22 20
16 12 6 5 10 15 14 9 5 3 2 2 2 2 1 1 1 1 1 3 2 3 2 2 3 3 2 0 1 3 2 2 1 1 1 3 2 1 1 3 1 1 3 6 2 2 1 2 2 4 7 6 4 4 5 4 4 5 7 9 11 13 13 12 14 16 15 12 13 16 20 21 20 18 18 17 15 14 15 17 20 24 25 24 25 26 26
13 11 10 12 14 13 9 5 2 2 2 2 1 1 1 1 1 2 1 0 1 2 2 1 1 3 4 2 2 3 3 2 1 2 0 3 2 1 1 2 1 0 4 5 0 2 1 1 4 6 6 4 3 4 5 5 4 5 9 12 14 16 16 14 15 18 19 16 14 17 22 24 24 23 23 23 21 21 22 22 23 25 28 29 29 30 29
13 11 9 9 7 5 3 2 1 1 2 2 1 1 2 2 2 1 1 2 1 1 2 2 2 4 4 2 2 3 4 3 1 1 1 2 1 1 1 1 1 2 3 1 1 1 2 4 6 7 3 2 4 4 5 5 5 6 10 14 16 17 18 17 16 19 22 22 20 22 24 25 26 28 28 28 26 24 26 29 29 29 30 31 32 32 33
11 7 4 3 3 2 2 1 1 1 1 1 1 1 1 3 2 1 1 2 2 1 2 2 2 3 3 2 1 2 4 2 0 1 1 2 1 1 0 2 3 3 2 1 1 3 4 5 6 6 4 4 4 5 6 6 7 7 10 15 19 19 19 19 19 21 23 25 26 27 27 28 29 30 31 31 30 28 29 32 35 34 34 32 31 32 35
7 4 4 3 3 2 1 1 1 1 1 0 1 2 2 1 1 2 2 2 1 2 3 2 1 1 3 3 2 1 2 1 1 0 1 1 1 1 2 3 2 1 2 2 3 4 5 4 3 4 4 4 6 7 7 7 8 8 9 13 17 18 19 20 21 21 23 26 29 30 30 30 30 30 32 36 38 37 35 34 34 34 34 31 30 31 35
4 2 3 2 1 1 1 0 1 1 1 1 2 3 4 4 4 4 3 1 1 3 4 3 1 1 3 3 2 2 1 0 1 2 0 1 2 4 2 1 1 1 2 3 5 6 7 6 4 3 4 6 7 9 9 9 10 11 11 12 15 19 22 25 25 26 27 31 33 33 32 33 32 32 32 35 37 38 37 37 36 34 32 29 29 32 36
3 2 3 2 1 2 1 1 1 1 1 2 2 3 4 3 3 4 3 2 2 2 3 2 1 2 2 2 2 2 1 1 1 2 0 1 3 4 1 1 3 4 3 4 6 7 7 5 4 4 6 7 8 9 10 11 12 14 16 17 18 22 27 29 29 30 33 36 36 34 33 34 34 33 32 32 34 37 38 39 38 36 33 31 32 35 36
2 1 2 1 1 1 1 1 2 2 1 2 3 3 3 2 3 5 4 3 2 2 1 1 2 3 3 1 2 2 2 1 1 3 1 1 1 3 2 2 5 4 3 4 7 7 5 5 5 6 8 8 9 10 12 14 16 18 20 20 20 23 27 28 27 30 34 35 31 29 30 33 34 34 32 31 32 35 38 39 39 38 36 35 35 36 35
3 2 2 1 1 2 3 1 1 3 4 3 3 3 3 2 4 6 5 2 2 2 1 1 0 2 3 1 0 1 1 1 2 2 1 0 1 2 2 4 5 5 4 5 5 5 5 5 7 9 10 11 12 13 15 16 18 19 20 22 24 27 28 28 29 33 35 34 30 31 33 34 33 32 31 29 29 33 37 40 40 39 39 39 38 36 35
3 2 2 1 1 2 1 1 1 3 5 4 3 3 2 2 4 6 4 1 1 1 2 1 0 1 1 1 2 1 2 3 2 1 2 2 3 2 3 6 8 7 6 5 5 6 6 6 8 11 14 15 16 16 16 17 18 21 25 28 31 32 32 33 33 35 35 35 35 36 36 34 32 32 31 30 32 35 38 40 39 39 39 40 38 35 34
2 1 2 2 2 2 2 1 2 4 5 4 3 3 2 1 3 6 4 1 3 4 3 1 0 2 2 2 1 2 2 1 0 1 4 4 2 2 4 9 10 8 8 8 8 8 9 9 10 13 15 15 14 14 17 21 24 28 31 34 34 34 34 34 34 34 35 36 37 37 36 36 37 37 36 37 37 34 31 31 35 37 37 37 36 34 34
0 1 2 2 2 3 2 2 3 5 5 5 5 4 3 3 6 7 4 1 2 2 2 1 1 0 2 3 2 1 1 1 2 5 6 5 3 3 6 9 10 9 10 10 10 10 11 12 13 14 15 15 15 19 24 29 32 34 36 36 35 34 34 34 34 35 35 35 36 38 39 40 41 41 38 35 30 23 18 22 30 36 36 35 36 36 36
Wind_Direction
27 26 26 25 23 22 20 20 22 24 28 38 38 58 69 64 126 342 355 3 158 70 54 341 21 61 143 3 74 26 61 100 29 2 8 30 35 15 27 189 55 161 206 106 157 201 214 199 186 222 240 252 255 315 347 334 338 86 110 262 296 80 85 7 284 284 304 317 334 15 46 83 150 242 149 138 149 136 152 177 185 202 205 157 93 267 269
28 27 27 26 25 23 21 20 19 21 28 31 48 81 101 110 170 357 12 30 167 82 79 139 42 49 262 40 39 349 49 80 32 356 341 9 77 42 22 312 30 47 82 78 151 221 270 233 237 185 228 245 27 26 351 339 13 83 139 157 344 287 208 47 336 329 337 343 350 348 343 257 224 242 188 149 119 101 116 144 114 256 219 168 154 251 261
29 28 28 27 26 25 23 21 18 20 29 31 58 116 121 73 147 313 17 41 70 95 138 145 124 134 77 58 28 359 41 73 49 63 14 23 133 98 5 353 41 56 51 47 38 15 13 297 333 21 255 259 11 37 343 328 86 129 289 346 281 240 206 128 94 312 304 304 306 298 269 249 248 225 206 199 141 130 151 138 118 242 236 162 171 237 266
30 29 28 27 27 26 26 24 20 20 28 43 63 83 98 71 59 315 351 29 56 76 107 100 107 132 113 74 17 24 52 346 27 90 101 71 108 118 282 334 53 57 40 23 340 322 357 8 340 326 262 267 293 51 330 335 135 230 275 270 79 92 224 211 188 199 223 243 256 253 119 270 271 263 232 205 183 152 126 109 173 202 180 197 227 238 272
32 31 29 29 28 27 28 28 25 24 29 53 64 54 48 89 65 9 325 354 29 40 22 38 61 112 114 93 14 12 351 316 349 56 114 123 100 136 165 90 85 118 27 8 280 272 326 26 252 239 238 263 280 218 178 152 305 303 272 236 98 86 279 241 203 222 239 249 264 295 26 277 265 271 256 208 183 157 154 194 214 161 126 263 251 221 243
33 32 31 31 30 29 30 31 31 33 35 60 81 52 27 79 128 214 163 49 29 19 10 40 55 44 70 100 47 6 357 355 353 328 343 29 31 353 16 20 270 206 185 101 279 304 333 313 257 244 249 285 330 340 193 110 355 349 353 329 105 124 263 248 196 250 265 271 281 288 277 268 264 266 264 237 181 176 196 220 214 159 197 256 260 237 251
33 32 32 31 31 32 32 32 35 39 44 64 78 72 22 75 108 259 33 94 159 223 345 76 77 45 56 81 45 37 25 4 331 256 21 358 352 32 349 327 331 291 257 73 276 282 339 317 283 260 274 292 340 326 287 80 25 16 38 342 86 146 259 287 37 291 283 276 283 281 241 267 279 264 257 228 195 203 213 231 225 196 234 256 267 280 281
32 32 32 31 31 32 32 34 37 39 48 60 66 61 30 87 128 176 55 63 126 182 360 67 76 35 38 60 39 81 87 350 310 258 87 346 327 29 342 309 322 292 218 85 245 234 224 299 281 208 43 296 237 244 258 124 56 24 72 340 327 167 272 347 65 317 291 283 313 336 216 234 269 276 267 218 204 225 227 239 235 216 247 261 269 281 278
31 31 32 31 31 32 32 34 37 38 45 58 65 47 40 84 164 146 101 49 1 4 14 67 84 34 14 42 25 337 161 192 262 273 181 155 212 195 188 275 294 86 76 268 257 240 209 246 252 202 194 253 212 217 247 131 119 63 113 331 9 136 280 3 51 339 292 297 346 332 286 245 261 279 278 235 200 216 221 227 208 194 226 259 276 269 264
31 30 31 31 31 32 31 33 36 38 43 56 72 45 30 57 358 61 99 78 359 6 5 30 77 59 346 262 238 298 246 221 224 312 339 107 159 197 180 175 250 334 330 275 253 228 203 231 254 220 202 235 194 178 100 112 127 162 160 142 129 137 136 4 35 327 276 292 325 318 317 331 295 267 249 205 206 218 226 244 226 205 197 200 233 244 264
32 31 31 30 31 31 32 33 34 37 40 49 65 56 26 33 11 7 79 74 358 344 28 28 51 79 226 211 228 254 266 273 270 33 315 303 97 202 169 133 105 277 269 275 285 246 231 257 277 222 146 90 90 100 98 95 99 149 153 140 148 115 106 75 90 232 276 299 326 334 341 334 276 235 184 211 260 240 221 243 239 215 197 216 253 270 285
34 33 32 32 31 31 32 34 35 38 39 41 53 54 34 29 35 36 86 90 353 359 57 49 31 105 249 44 270 232 222 266 261 176 279 282 3 35 108 112 125 268 273 329 346 314 281 287 273 233 90 52 67 79 87 88 55 10 146 136 134 112 106 171 154 163 272 311 357 354 327 258 257 272 246 233 245 209 212 253 261 238 217 234 265 275 274
35 34 33 33 33 32 32 33 35 38 38 35 43 49 39 34 51 75 94 103 23 348 65 63 290 74 14 298 263 248 245 274 291 229 240 264 278 313 355 141 195 243 326 334 336 340 311 314 299 260 303 12 53 66 60 50 28 10 44 103 132 137 139 170 154 178 271 339 23 324 291 281 287 307 340 167 163 121 214 285 282 264 220 209 246 262 263
33 34 34 33 34 33 33 33 33 36 37 35 40 47 41 36 46 72 104 96 71 257 142 29 341 350 270 232 254 300 299 312 319 263 210 235 248 253 280 270 217 303 325 313 353 22 340 345 5 341 328 5 17 8 38 48 38 33 13 350 143 136 140 173 230 215 188 184 259 271 307 310 304 317 76 139 107 114 123 300 291 284 243 193 229 262 270
32 32 32 32 33 33 33 34 34 34 36 36 39 46 43 37 39 54 118 111 100 301 44 28 311 342 83 211 263 1 349 342 339 314 317 21 260 252 265 286 311 317 315 329 33 43 31 357 10 352 336 354 348 307 294 56 7 18 7 337 102 118 157 175 192 248 115 95 301 313 335 305 282 274 266 253 184 168 154 136 289 288 278 211 225 263 281
33 33 33 33 32 32 31 33 33 33 36 36 37 43 42 35 34 40 68 109 99 54 294 208 174 130 108 178 210 66 13 333 336 340 344 344 317 291 284 287 294 292 341 33 58 70 46 4 168 110 304 282 255 293 295 305 320 344 27 39 53 42 28 118 135 291 50 109 226 260 249 263 272 274 264 247 216 169 113 19 288 278 295 262 224 271 293
35 36 36 35 34 34 33 33 32 31 33 35 38 42 41 33 30 33 37 78 89 55 270 206 131 94 77 19 342 46 115 310 9 26 335 309 307 315 304 297 266 238 263 33 30 51 54 40 123 298 277 243 149 305 300 327 313 302 343 45 52 34 11 67 170 250 210 143 218 251 237 253 271 283 282 248 202 129 60 337 292 281 312 312 270 294 305
38 38 38 38 37 37 36 36 34 32 32 34 38 43 41 34 29 31 38 78 84 50 286 98 70 56 78 94 306 215 176 358 30 36 304 304 330 326 289 296 350 240 229 55 40 40 47 296 253 270 270 266 102 296 289 314 286 272 188 105 65 41 350 153 176 212 189 177 230 270 263 256 263 277 300 239 179 67 9 302 286 314 325 318 307 306 307
40 39 39 39 38 37 37 36 34 34 34 33 36 41 39 33 29 31 38 76 85 48 325 2 54 52 118 114 42 105 145 53 63 68 1 344 301 222 237 335 59 227 44 69 94 93 44 275 254 137 262 291 315 204 272 268 250 207 136 249 277 235 171 90 147 174 187 178 203 276 285 270 231 208 213 70 326 326 307 280 297 318 317 315 314 310 309
40 39 38 37 36 35 35 35 34 34 34 34 36 42 40 32 27 30 34 67 103 67 356 11 62 72 90 80 67 78 40 26 58 112 98 263 247 34 28 358 335 352 19 30 8 203 173 262 283 144 214 265 265 166 285 282 259 208 189 234 244 186 171 252 207 179 147 77 36 302 288 272 193 137 59 323 288 303 305 307 313 312 311 316 314 311 317
39 38 36 34 34 33 32 33 33 32 33 33 33 40 41 32 25 28 33 51 95 89 29 43 73 80 82 80 90 136 162 211 204 169 169 238 251 68 52 267 245 205 231 129 228 279 212 213 270 262 221 266 295 247 266 300 298 272 203 215 253 189 172 245 252 191 131 150 232 244 247 235 185 117 300 258 254 284 312 317 308 307 315 323 314 310 316
39 38 36 34 33 32 32 33 32 32 33 31 30 39 43 32 24 28 38 52 77 96 110 105 99 89 75 60 53 59 75 225 212 188 169 235 273 161 161 192 201 204 201 131 96 303 286 188 276 306 295 295 274 247 213 242 292 299 290 190 262 220 188 210 245 221 177 217 249 262 277 273 219 177 240 270 278 289 303 298 295 304 316 321 318 314 315
36 35 34 32 32 32 32 32 31 30 32 31 33 44 47 36 27 28 38 64 79 85 98 111 109 89 53 37 37 39 26 354 253 222 189 184 296 272 177 177 227 232 137 93 177 243 241 204 218 324 295 244 227 279 286 240 257 283 282 252 268 255 219 207 248 267 275 265 263 272 296 300 294 241 240 265 281 294 312 308 295 297 308 312 312 310 309
31 28 27 27 28 30 32 32 31 30 31 33 38 46 48 42 33 29 32 55 73 73 80 90 93 73 9 5 16 17 7 3 321 261 220 197 228 300 270 204 219 355 355 285 166 122 102 225 177 51 262 230 198 273 281 263 245 244 273 296 312 304 268 235 257 287 304 289 283 296 302 297 301 300 277 266 276 291 306 310 296 295 302 301 299 300 302
23 21 21 21 23 27 29 31 30 28 29 33 39 45 48 44 37 34 38 43 56 93 102 332 329 28 360 356 3 358 356 1 355 297 233 217 215 230 256 274 57 304 282 250 126 104 75 256 206 218 252 238 211 229 247 254 246 197 256 289 299 315 304 270 250 265 271 272 285 301 302 296 298 299 286 308 324 317 310 309 302 301 302 300 301 305 304
17 18 18 19 22 24 26 28 27 26 26 30 37 46 49 47 41 39 41 35 37 95 83 303 277 308 349 345 347 350 356 1 3 6 260 232 230 237 253 276 301 285 259 118 124 148 174 207 197 206 229 232 224 219 221 243 257 250 250 252 231 303 296 276 244 276 268 268 285 302 305 301 301 338 59 338 331 333 330 324 317 314 315 317 318 315 306
16 17 17 19 21 22 22 23 23 23 22 24 35 49 51 48 44 41 37 29 16 46 40 311 270 313 328 321 330 344 353 360 0 5 10 263 233 240 249 249 258 296 77 103 139 130 122 125 224 203 215 245 246 217 224 255 273 269 261 253 224 278 275 230 123 280 274 284 300 309 307 300 300 338 19 337 326 340 336 328 325 322 319 320 320 316 312
17 17 16 17 18 18 17 16 17 18 16 15 25 51 55 48 44 40 36 33 32 110 175 227 277 310 324 315 324 335 342 349 353 355 348 325 272 243 239 216 187 140 132 160 186 134 155 197 214 193 216 283 286 257 270 319 306 271 259 241 206 219 227 176 157 244 269 285 296 299 296 291 298 321 335 325 331 358 333 314 312 311 308 309 313 312 313
12 12 12 13 11 10 10 8 7 8 8 5 8 45 68 50 38 30 27 27 27 48 145 217 306 314 322 313 321 331 336 340 344 346 335 320 291 251 241 215 191 174 145 139 139 163 199 210 198 209 225 196 214 281 323 343 289 270 256 234 217 216 210 186 194 248 276 285 293 305 306 291 295 310 312 304 309 326 308 300 300 297 299 306 307 301 302
6 6 5 6 4 3 4 3 0 2 4 0 359 20 51 44 21 13 12 15 14 19 101 100 342 300 307 310 318 333 337 339 344 351 345 326 291 256 246 224 200 180 113 61 165 185 224 253 241 270 267 197 179 281 307 258 276 274 254 235 236 247 251 235 222 242 271 285 296 309 292 277 280 288 287 288 298 300 289 289 291 289 294 301 301 298 299
1 360 359 0 359 357 358 1 2 5 7 8 18 45 62 305 339 351 358 6 10 24 99 101 318 308 330 326 312 334 337 336 342 350 346 342 341 268 240 230 215 187 177 257 237 187 213 235 225 281 282 203 178 216 214 203 277 280 262 235 227 248 270 275 256 246 260 278 293 299 280 272 282 300 296 296 305 307 298 287 292 295 297 296 293 291 291
358 355 356 357 355 353 356 2 7 13 19 34 59 79 80 323 329 339 349 5 20 63 103 69 6 333 333 313 303 337 339 333 338 352 348 344 23 341 256 231 237 218 200 195 244 245 228 195 186 266 261 189 174 199 189 181 241 262 263 252 243 260 280 286 281 277 270 263 271 309 312 303 298 296 289 286 296 301 296 292 298 302 302 297 294 290 287
360 356 356 355 351 351 354 2 13 17 23 42 56 39 9 354 344 342 353 24 50 78 103 85 60 295 293 297 316 356 351 338 343 2 350 298 25 349 289 251 285 254 216 193 202 246 234 149 150 260 271 221 169 177 217 223 236 250 263 270 268 272 278 274 275 282 278 255 225 221 265 275 279 289 293 292 293 293 292 294 300 304 304 299 292 292 294
358 354 355 355 350 349 353 9 21 16 17 32 20 354 352 356 358 2 15 47 72 55 55 79 103 258 312 327 338 360 360 348 331 347 335 311 25 14 289 300 354 337 216 199 193 282 301 212 161 239 276 275 141 175 252 251 247 250 264 273 271 272 281 281 276 267 262 260 239 224 240 260 282 299 299 292 291 294 297 299 300 303 306 305 298 296 300
355 351 352 352 348 346 353 22 18 9 16 22 350 341 347 356 12 33 41 49 55 33 9 50 90 109 351 353 320 306 345 352 292 266 274 295 347 34 94 351 345 301 229 212 62 296 279 235 182 223 268 270 205 226 240 252 260 264 269 273 276 284 287 281 272 261 263 272 268 258 258 266 283 294 294 288 289 297 301 301 300 299 300 301 300 301 300
353 351 351 350 351 350 350 13 9 9 11 351 333 333 343 2 30 58 66 57 52 71 153 58 69 119 83 347 288 294 338 346 299 272 285 303 327 22 76 55 324 270 237 57 5 266 266 206 194 262 297 197 216 228 226 238 260 269 270 273 274 262 253 257 258 269 287 297 295 293 300 302 293 293 297 297 298 302 302 302 305 305 301 300 303 306 305
355 353 352 348 349 356 19 26 10 359 343 328 324 328 340 360 14 44 67 53 43 52 84 90 129 196 181 225 265 314 347 338 322 341 335 301 296 326 50 57 278 278 347 360 255 241 259 218 202 237 244 231 236 242 231 231 251 262 271 279 277 257 251 255 248 259 290 305 308 307 310 309 304 305 310 309 310 312 310 307 306 305 302 301 302 303 303
355 350 352 360 10 36 45 359 342 332 325 321 324 331 338 356 16 15 7 18 20 27 53 79 198 254 55 227 273 315 331 325 355 2 327 284 312 327 20 80 248 277 341 298 250 206 136 266 229 224 249 258 269 262 239 238 250 257 262 269 268 260 263 264 250 262 307 320 320 314 314 314 313 312 312 310 308 307 305 303 300 298 295 293 293 297 300
5 2 4 15 32 48 311 322 323 320 319 324 340 346 331 1 34 14 328 353 11 360 20 43 226 214 110 300 288 299 333 7 357 347 299 275 309 303 300 312 296 358 351 292 277 118 120 272 291 322 273 273 274 249 241 250 269 273 261 254 258 262 264 263 267 282 294 296 296 298 300 302 302 302 303 303 302 301 300 299 298 296 295 294 294 295 296
16 16 16 19 351 324 321 323 322 321 324 337 357 21 27 24 31 358 341 25 17 308 321 31 282 241 168 247 280 285 288 307 309 297 252 249 253 187 146 286 277 113 278 274 278 74 217 261 288 318 272 262 249 246 258 276 285 277 273 278 285 290 295 299 301 301 296 290 289 290 287 283 284 288 293 295 298 300 301 300 300 298 296 295 294 294 294
7 3 355 322 313 317 323 330 338 356 21 25 19 34 37 9 7 33 53 40 354 276 266 53 18 334 339 83 236 264 273 274 252 125 172 271 280 114 193 265 276 90 254 255 250 75 55 263 253 258 257 252 248 269 296 311 307 309 325 332 327 322 317 309 305 305 301 292 289 292 293 291 289 288 288 288 289 292 294 296 298 299 298 297 296 297 300
342 329 318 309 308 314 325 342 1 18 39 57 50 22 359 355 12 16 16 28 281 280 296 49 15 301 288 256 214 235 262 294 23 85 100 282 278 158 202 288 352 270 246 249 257 66 60 252 255 259 260 269 290 317 342 340 324 327 329 324 320 317 312 305 304 305 304 297 289 291 296 298 296 295 294 292 290 289 290 290 292 295 299 302 303 304 305
334 324 318 314 315 328 347 353 17 68 61 45 34 24 2 358 16 26 321 295 314 342 324 324 332 323 311 296 250 244 253 266 306 103 226 273 285 69 20 337 285 229 243 265 29 293 240 233 248 262 286 325 315 333 1 342 312 314 317 313 312 310 306 303 302 303 304 304 299 297 300 302 302 302 301 297 291 288 290 295 299 302 305 307 307 306 306
343 337 343 345 342 353 356 351 58 93 57 8 53 90 23 350 354 14 310 303 312 329 318 324 1 353 326 314 309 274 263 259 90 96 264 279 330 68 356 254 239 242 277 298 247 252 246 237 251 280 326 350 333 339 350 337 323 324 319 314 315 315 312 310 310 310 312 315 314 313 312 311 309 308 309 308 306 305 306 308 311 311 310 308 305 303 303
1 360 20 15 347 338 10 353 3 38 53 51 146 151 149 157 228 229 225 221 241 312 329 351 45 347 291 286 287 265 260 298 31 235 250 290 305 235 226 238 252 317 312 271 258 268 270 265 281 323 349 353 341 337 335 327 321 317 311 312 317 319 317 317 319 318 318 319 319 319 318 317 316 317 317 316 316 315 313 312 311 309 307 306 303 301 302
44 55 59 48 339 343 59 55 356 27 95 181 191 180 175 184 210 228 228 193 226 305 310 312 324 307 294 290 280 257 244 335 292 259 152 83 264 251 229 212 285 293 279 265 257 255 261 271 298 328 333 341 340 332 325 325 323 319 317 318 319 320 321 322 321 320 320 321 321 321 320 318 317 316 314 312 311 310 308 306 306 305 303 302 300 300 302
57 58 71 86 310 339 42 169 253 270 198 201 204 200 201 215 243 254 235 197 208 270 292 288 273 266 261 252 260 268 298 63 270 259 201 132 253 268 321 340 257 247 236 241 248 252 261 277 296 309 322 335 337 327 324 326 325 323 323 323 322 323 325 325 323 321 320 319 318 317 314 312 311 309 307 306 305 305 304 304 304 303 301 299 297 298 300
92 64 82 128 233 285 256 261 298 305 246 226 238 243 247 279 295 284 261 220 215 270 324 21 359 317 295 242 218 262 302 355 252 256 261 109 242 274 290 256 251 245 213 222 248 266 279 285 296 311 321 326 324 321 323 325 323 323 324 323 321 321 320 317 315 313 311 310 309 307 305 305 305 305 304 303 302 302 303 303 303 303 302 299 298 298 298
98 104 111 135 209 227 207 189 331 308 285 281 289 288 278 264 269 277 279 262 233 242 223 145 204 285 286 279 187 286 283 235 229 266 321 19 227 239 238 246 261 269 254 242 258 278 284 290 307 317 319 321 323 323 323 321 319 319 317 314 311 311 310 308 306 306 306 305 304 302 302 302 302 302 301 301 300 302 303 303 303 302 301 299 298 298 298
71 94 143 150 215 252 231 120 44 292 296 316 328 303 284 272 275 280 277 236 172 359 1 9 279 270 292 339 2 316 258 240 240 290 286 248 227 223 240 251 259 266 270 276 289 297 297 304 314 315 315 317 319 316 314 312 311 309 308 306 306 306 305 304 304 303 303 303 303 302 302 302 302 300 300 300 300 301 301 301 300 300 299 299 299 298 298
29 359 232 213 203 206 207 202 240 260 275 283 268 249 234 247 271 271 263 155 59 24 358 320 314 353 338 315 283 264 256 244 90 270 257 239 190 163 238 256 264 276 285 290 296 303 307 309 310 309 310 312 311 306 305 305 303 302 302 302 302 302 302 302 302 301 301 302 302 302 301 301 301 300 300 300 300 300 300 299 299 300 300 300 301 300 299
342 291 282 275 240 204 202 234 241 241 249 251 237 211 185 216 249 262 273 342 13 330 280 191 135 339 277 251 237 257 288 291 270 268 264 249 203 207 246 262 273 285 291 293 297 301 302 302 303 303 303 303 302 302 302 301 300 301 301 301 301 301 301 301 301 301 300 300 300 299 299 300 300 301 301 301 300 299 297 296 299 300 300 300 301 301 300